Regional Weather Roundup
Issued by NWS

Home | Current Version | Previous Version | Graphics & Text | Print | Product List | Glossary Off
Versions: 1 2 3 4 5 6 7 8 9 10 11 12 13 14 15 16 17 18 19 20 21 22 23 24 25 26 27 28 29 30 31 32 33 34 35 36 37 38 39 40 41 42 43 44 45 46 47 48 49 50

000
ASUS43 KMKX 252300
RWRWI

WISCONSIN REGIONAL WEATHER ROUNDUP
NATIONAL WEATHER SERVICE MILWAUKEE/SULLIVAN WI
600 PM CDT SAT MAR 25 2017

NOTE: "FAIR" INDICATES FEW OR NO CLOUDS BELOW 12,000 FEET WITH NO
SIGNIFICANT WEATHER AND/OR OBSTRUCTIONS TO VISIBILITY.

WIZ001-002-006>008-014>016-023>028-260000-
NORTHWEST WISCONSIN

CITY           SKY/WX    TMP DP  RH WIND       PRES   REMARKS
SUPERIOR ARPT  CLOUDY    33  31  90 E20G26    30.19F WCI  22
ASHLAND        CLOUDY    34  29  82 NE12      30.19F WCI  25
HAYWARD        CLOUDY    45  29  53 NE10      30.12S
SIREN          CLOUDY    45  31  57 E6        30.10F
CUMBERLAND     CLOUDY    41  32  70 E8        30.09S
RICE LAKE      CLOUDY    42  32  68 E8        30.11S
CHETEK         CLOUDY    40  33  74 NE5       30.10S
LADYSMITH      CLOUDY    41  32  71 E10       30.12F
EAU CLAIRE     NOT AVBL
MENOMONIE      CLOUDY    40  35  81 NE9       30.08F HAZE    WCI  34
NEW RICHMOND   CLOUDY    41  32  69 NE7       30.08F
OSCEOLA        CLOUDY    43  33  67 NE10      30.11F
$$

WIZ003>005-009-010-017-018-260000-
NORTH CENTRAL WISCONSIN

CITY           SKY/WX    TMP DP  RH WIND       PRES   REMARKS
MANITOWISH WTR CLOUDY    37  31  81 E7        30.14F WCI  31
ARBOR VITAE    CLOUDY    39  30  70 E6        30.13F WCI  35
WOODRUFF       CLOUDY    39  30  70 E6        30.13F WCI  35
RHINELANDER    CLOUDY    39  30  70 E16       30.13F WCI  30
EAGLE RIVER    CLOUDY    38  29  68 E10       30.14F WCI  31
LAND O LAKES   CLOUDY    37  30  76 E6        30.18S WCI  32
PHILLIPS       CLOUDY    39  31  73 E8        30.11F WCI  34
TOMAHAWK       CLOUDY    38  30  73 E7        30.13S WCI  32
MEDFORD        DRIZZLE   37  32  82 E8        30.09F WCI  31
MERRILL        CLOUDY    38  31  76 E10G20    30.12S WCI  31
$$

WIZ029-030-035-036-043>047-260000-
CENTRAL WISCONSIN

CITY           SKY/WX    TMP DP  RH WIND       PRES   REMARKS
WAUSAU         CLOUDY    36  30  79 E14G21    30.10F WCI  27
MOSINEE        LGT RAIN  36  34  93 E17       30.11F WCI  25
MARSHFIELD     LGT RAIN  36  32  85 E16       30.08S FOG     WCI  26
STEVENS POINT  LGT RAIN  32  32 100 NE14G24   30.11F WCI  22
WAUPACA        CLOUDY    37  34  90 NE10G16   30.12F FOG     WCI  29
WAUTOMA        MIX PCPN  36  34  92 NE13      30.11R FOG     WCI  27
WISC RAPIDS    LGT RAIN  35  34  96 E15G26    30.11R FOG     WCI  25
CAMP DOUGLAS   CLOUDY    37  36  93 E10       30.07S FOG     WCI  30
$$

WIZ011>013-019>022-031-037>040-048>050-260000-
NORTHEAST WISCONSIN

CITY           SKY/WX    TMP DP  RH WIND       PRES   REMARKS
ANTIGO         CLOUDY    34  30  85 E16       30.14S WCI  23
SHAWANO        CLOUDY    36  32  86 NE14G21   30.16F WCI  27
OCONTO         CLOUDY    34  30  86 NE13G18   30.17F WCI  25
STURGEON BAY   MIX PCPN  35  32  88 NE10      30.17F WCI  27
GREEN BAY      CLOUDY    35  34  96 NE17      30.15R WCI  25
MANITOWOC      LGT RAIN  37  36  93 NE10G16   30.13S WCI  30
APPLETON       LGT RAIN  36  36 100 NE13G23   30.10F WCI  27
CLINTONVILLE   LGT RAIN  34  32  93 NE10G20   30.14F WCI  26
OSHKOSH        LGT RAIN  36  35  96 NE10      30.10S VSB 1   WCI  28
$$

WIZ032>034-041-042-053>061-260000-
SOUTHWEST WISCONSIN

CITY           SKY/WX    TMP DP  RH WIND       PRES   REMARKS
LA CROSSE      LGT RAIN  40  36  86 NE9       30.05S WCI  34
SPARTA         CLOUDY    37  36  96 E13       30.07R FOG     WCI  28
VIROQUA        CLOUDY    37  37  99 E17G23    30.00S WCI  27
BOSCOBEL       CLOUDY    41  38  89 E10G22    30.01S FOG
PRAIRIE DU CHI CLOUDY    39  38  97 E10       29.99F FOG     WCI  32
PLATTEVILLE    CLOUDY    40  40 100 E20       29.97S WCI  31
$$

WIZ056-057-062-063-064-067-068-260000-
SOUTH CENTRAL WISCONSIN

CITY           SKY/WX    TMP DP  RH WIND       PRES   REMARKS
REEDSBURG      CLOUDY    36  36 100 NE10G20   30.04F FOG     WCI  29
BARABOO/DELLS  CLOUDY    37  35  95 E16G22    30.04F FOG     WCI  27
LONE ROCK      NOT AVBL
MINERAL POINT  CLOUDY    39  39 100 E14G23    29.97S FOG     WCI  31
MADISON        CLOUDY    39  37  92 E17       30.03F WCI  30
MIDDLETON      CLOUDY    40  39  96 E15       30.03F WCI  32
WATERTOWN      CLOUDY    38  38 100 E16       30.04S FOG     WCI  30
MONROE         CLOUDY    39  37  93 NE15G23   29.98S FOG     WCI  31
JANESVILLE     CLOUDY    41  41 100 E15       29.99F
$$

WIZ051-052-058>065-066-070>072-260000-
SOUTHEAST WISCONSIN

CITY           SKY/WX    TMP DP  RH WIND       PRES   REMARKS
MILWAUKEE      CLOUDY    39  37  92 NE13      30.06F WCI  31
WAUKESHA       CLOUDY    36  36 100 E15G21    30.06F WCI  26
MILWAUKEE/TIMM DRIZZLE   37  36  93 NE9G16    30.07F WCI  31
RACINE         CLOUDY    39  37  92 NE12      30.07S WCI  32
KENOSHA        CLOUDY    40  39  97 NE12      30.03F FOG     WCI  33
FOND DU LAC    LGT RAIN  38  35  89 E14       30.09S FOG     WCI  30
SHEBOYGAN      CLOUDY    38  35  89 NE13      30.11S WCI  30
WEST BEND      CLOUDY    36  36 100 E14G20    30.08S WCI  27
JUNEAU         CLOUDY    37  36  95 NE14      30.07S WCI  29
$$

LSZ147-162-260000-
LAKE SUPERIOR

STATION/POSITION TIME  TEMP    WIND        PRES    WAVE
                       AIR SEA DIR/SP/G            HT/PER
                 (UTC) (F)     (DEG/KT/KT) (MB)    (FT/S)
DEVILS ISLAND    2200   32      60/ 20/ 24 1024.3F
PORT WING        2240   34      40/ 17/ 19 1022.7S
SAXON HARBOR     2240   34      50/ 16/ 19 1022.0S
$$

LMZ867-665-643>646-260000-
LAKE MICHIGAN

STATION/POSITION TIME  TEMP    WIND        PRES    WAVE
                       AIR SEA DIR/SP/G            HT/PER
                 (UTC) (F)     (DEG/KT/KT) (MB)    (FT/S)
CHAMBERS ISLAND  2240   34      30/ 14/ 16 1022.4F
NORTHPORT PIER   2240   34      60/ 16/ 18 1023.0F
SISTER BAY       2206   35      90/ 12/ 21   N/A
KEWAUNEE LAKESHO 2230   36      50/ 13/ 19 1020.3F
SHEBOYGAN LAKESH 2200   37      30/ 13/ 14 1020.0S
PORT WASHINGTON  2230   38      40/ 12/ 15 1020.3S
MILWAUKEE LAKESH 2230   38      20/ 16/ 17   N/A
KENOSHA   LAKESH 2200   38      20/ 15/ 17 1017.3
$$

TC  - TEMPERATURE IN CELSIUS
VSB - VISIBILITY IN STATUTE MILES
WCI - WIND CHILL INDEX
HX  - HEAT INDEX





USA.gov is the U.S. government's official web portal to all federal, state and local government web resources and services.